Terug naar catalogus

SL-14 DEB

LostPO
NORAD 39970·DEBRIS·🇷🇺 Russia

Gelanceerd Aug 18, 1987 vanaf Plesetsk Cosmodrome

Loading…

Volgende Passages (komende 24 uur)

TLE

VerouderdSource: Space-Track

Epoch: Jun 19, 2024, 15:08 UTC

1 39970U 87068CW  24171.63092453  .00003034  00000-0  15642-2 0  9994
2 39970  82.5383 295.5170 0012883 352.2443   7.8533 14.14822837 26300

Volg SL-14 DEB in realtime met AllMySat

Download on the App Store